This is the latest recevied weather packets stored in our database for station/object KB1YYC. If no packets are shown the sender has not sent any weather packets the latest 10 day(s).
| Time | Temp. | Humidity | Pressure | Rain* | Wind** | Luminosity | Snow |
|---|---|---|---|---|---|---|---|
| 1777445725 | 6.11° C | 68% | 1020 hPa | 0 mm | - | 0 W/m² | - |
| 1777445421 | 6.11° C | 67% | 1019.9 hPa | 0 mm | - | 0 W/m² | - |
| 1777445117 | 6.11° C | 67% | 1020 hPa | 0 mm | - | 0 W/m² | - |
| 1777444814 | 6.11° C | 65% | 1020 hPa | 0 mm | - | 0 W/m² | - |
| 1777444509 | 6.11° C | 66% | 1019.9 hPa | 0 mm | - | 0 W/m² | - |
| 1777444208 | 6.11° C | 65% | 1020 hPa | 0 mm | - | 0 W/m² | - |
| 1777443903 | 6.11° C | 65% | 1020 hPa | 0 mm | - | 0 W/m² | - |
| 1777443599 | 6.11° C | 63% | 1019.8 hPa | 0 mm | - | 0 W/m² | - |
| 1777443294 | 5.56° C | 65% | 1019.9 hPa | 0 mm | - | 0 W/m² | - |
| 1777442992 | 5.56° C | 65% | 1020 hPa | 0 mm | - | 0 W/m² | - |
| 1777442689 | 5.56° C | 66% | 1019.8 hPa | 0 mm | - | 0 W/m² | - |
| 1777442384 | 5.56° C | 66% | 1019.9 hPa | 0 mm | - | 0 W/m² | - |
| 1777442081 | 5.56° C | 66% | 1019.8 hPa | 0 mm | - | 0 W/m² | - |
| 1777441776 | 5.56° C | 66% | 1019.8 hPa | 0 mm | - | 0 W/m² | - |
| 1777441472 | 5.56° C | 67% | 1019.6 hPa | 0 mm | - | 0 W/m² | - |
| 1777441167 | 5.56° C | 66% | 1019.7 hPa | 0 mm | - | 0 W/m² | - |
| 1777440863 | 5.56° C | 64% | 1019.8 hPa | 0 mm | - | 0 W/m² | - |
| 1777440558 | 5.56° C | 67% | 1019.9 hPa | 0 mm | - | 0 W/m² | - |
| 1777440255 | 5.56° C | 64% | 1019.7 hPa | 0 mm | - | 0 W/m² | - |
| 1777439951 | 5.56° C | 65% | 1019.9 hPa | 0 mm | - | 0 W/m² | - |
| 1777439647 | 5.56° C | 65% | 1019.7 hPa | 0 mm | - | 0 W/m² | - |
| 1777439343 | 5.56° C | 64% | 1019.7 hPa | 0 mm | - | 0 W/m² | - |
| 1777439038 | 5.56° C | 65% | 1019.7 hPa | 0 mm | - | 0 W/m² | - |
| 1777438736 | 5.56° C | 65% | 1019.8 hPa | 0 mm | - | 0 W/m² | - |
| 1777438433 | 5.56° C | 65% | 1019.5 hPa | 0 mm | - | 0 W/m² | - |
* Rain latest hour (hover to see other rain measurements)
** Current wind speed in m/s (hover to see current wind gust speed)